Temp
8 7 7 8 7 9 9 9 10 11 10 10 9 8 9 10 10 9 10 11 11 12 11 11 11 11 11 11 11 11 11 11 11 12 12 13 13 12 12 11 11 11 10 10
7 8 8 8 8 8 8 9 9 10 9 9 8 9 9 9 9 11 11 11 11 11 11 11 10 10 10 10 11 11 11 11 11 11 11 11 11 11 11 11 10 9 9 8
8 9 8 9 8 8 8 8 9 10 8 7 7 9 9 9 9 10 11 12 12 12 11 11 10 10 10 10 10 10 10 10 11 11 10 10 10 10 10 9 9 7 7 7
7 7 8 9 9 7 9 8 9 9 7 8 6 10 9 8 8 8 9 10 11 11 11 11 10 10 10 10 10 10 10 10 10 9 9 9 9 9 8 7 7 7 6 6
8 8 8 8 9 8 8 7 7 6 5 5 7 6 9 7 9 8 8 8 10 11 11 11 10 10 10 10 10 9 9 9 9 9 8 8 7 7 6 6 6 6 6 5
6 7 7 8 7 7 5 6 5 3 3 4 6 7 8 8 9 8 7 7 8 9 10 10 10 10 10 9 9 9 8 8 8 8 7 6 6 6 6 5 5 5 6 6
6 6 6 7 7 7 7 6 4 4 2 6 4 5 7 7 7 7 7 7 8 9 9 9 9 9 9 9 8 8 8 8 8 7 6 5 5 5 4 4 4 4 5 5
4 5 6 7 7 7 6 6 4 4 4 5 4 6 9 7 6 6 7 7 7 8 9 9 9 9 9 8 8 8 8 8 7 6 6 5 4 4 3 2 2 2 2 3
4 6 6 6 7 7 6 5 5 4 2 3 6 6 7 6 6 5 5 7 7 8 8 8 8 8 8 8 7 7 7 7 6 5 5 4 4 4 3 3 3 2 2 3
5 6 6 6 7 6 6 5 5 4 4 4 4 5 7 8 6 4 4 6 7 7 8 8 8 8 7 7 7 7 6 6 5 4 4 4 4 4 3 3 3 3 3 3
4 5 5 6 5 5 5 5 4 3 3 3 4 7 5 7 5 4 4 7 7 8 8 8 7 7 7 6 6 6 5 4 3 3 3 3 2 1 1 2 2 3 4 4
4 3 4 5 5 5 5 5 4 4 3 1 2 5 7 5 4 5 5 7 7 7 7 7 7 6 6 6 6 5 4 3 2 2 2 2 1 1 1 2 3 3 4 4
4 3 2 5 5 5 5 4 4 3 2 2 3 6 6 5 5 6 6 6 6 7 7 7 7 6 6 6 5 4 3 3 2 1 1 1 2 1 2 2 3 4 4 4
5 3 4 4 6 4 5 5 4 4 2 4 5 5 6 6 6 5 5 6 6 6 6 6 6 6 5 4 4 3 3 2 3 1 1 1 1 1 2 3 3 4 4 3
4 4 2 3 3 4 4 5 4 4 4 4 5 4 5 6 6 5 6 6 5 5 6 6 6 5 4 4 3 3 2 2 3 2 1 1 1 1 1 2 3 4 3 3
2 3 3 3 3 2 3 3 3 4 4 3 4 4 5 6 7 5 6 5 5 5 5 5 4 4 4 3 3 2 2 2 2 2 1 1 1 1 1 1 2 3 2 2
2 2 2 3 2 2 2 2 4 5 4 4 3 4 3 4 4 5 6 6 5 4 4 4 4 4 4 3 3 2 3 2 1 1 1 1 1 1 1 1 2 2 1 1
1 1 2 2 2 1 4 3 4 3 1 -0 0 0 0 1 1 3 5 5 4 4 4 4 4 4 3 3 3 2 1 1 1 1 1 1 -0 1 1 1 1 1 1 1
0 1 1 1 1 2 4 2 2 3 -0 -1 -2 -1 -0 1 2 1 2 3 3 3 3 4 4 3 3 3 2 2 1 1 1 1 1 0 0 0 0 1 1 0 1 0
-1 0 2 1 1 1 2 1 -0 1 -1 -2 -2 -2 -1 1 0 -1 2 2 2 3 3 3 3 3 3 3 2 2 1 1 1 1 0 0 -0 0 0 0 0 -0 -0 0
-1 -1 0 1 1 1 -2 -1 -1 1 -1 -2 -2 -2 -1 -2 -1 1 1 2 2 2 2 2 3 4 3 3 2 2 1 1 0 0 0 -0 -0 0 0 0 0 -0 -0 -0
-0 -1 -0 1 1 0 -2 -2 0 -2 -2 -2 -2 -2 -1 -1 0 0 1 1 1 1 1 2 2 2 2 2 2 2 1 0 0 -0 -0 -1 -0 -0 -0 -0 -0 -1 -1 -1
-2 -2 -2 -1 -1 -3 -2 -1 -1 -1 -1 -2 -2 -1 -2 -1 -0 0 0 0 0 1 1 1 2 2 2 2 2 2 2 1 0 -0 -1 -1 -1 -0 -1 -1 -1 -1 -0 -0
-3 -4 -3 -2 -3 -3 -2 -2 -1 -2 -2 -2 -2 -2 -2 -2 -1 -1 0 1 1 1 1 1 1 1 2 2 2 2 2 1 -0 -0 -1 -1 -1 -1 -1 -1 -2 -1 -0 -0
-4 -4 -5 -5 -5 -3 -3 -2 -2 -3 -3 -3 -3 -3 -3 -3 -3 -2 -2 -1 0 1 1 1 1 1 2 1 2 2 1 1 0 -0 -1 -1 -1 -1 -1 -2 -2 -1 -1 -0
-5 -5 -6 -6 -3 -3 -3 -3 -3 -4 -4 -4 -4 -4 -4 -4 -4 -3 -3 -2 -2 -1 0 0 1 1 1 1 1 1 1 1 0 -0 -1 -1 -1 -1 -2 -2 -2 -1 -1 -0
Height
1510 1514 1517 1513 1515 1513 1513 1514 1514 1510 1510 1510 1510 1508 1502 1502 1504 1504 1504 1508 1510 1513 1516 1518 1520 1523 1525 1527 1528 1529 1530 1529 1529 1528 1525 1524 1523 1521 1520 1519 1517 1515 1514 1513
1514 1512 1511 1512 1513 1514 1515 1514 1516 1512 1510 1510 1508 1504 1499 1498 1498 1499 1501 1502 1506 1510 1513 1516 1519 1522 1524 1526 1527 1527 1528 1527 1525 1524 1522 1520 1518 1516 1515 1513 1512 1511 1510 1509
1513 1511 1511 1511 1512 1514 1514 1516 1515 1514 1513 1513 1511 1502 1496 1494 1494 1496 1498 1499 1501 1505 1508 1513 1516 1520 1523 1524 1524 1525 1525 1524 1523 1521 1520 1518 1516 1514 1512 1510 1509 1508 1506 1505
1511 1509 1508 1509 1510 1514 1511 1511 1512 1513 1519 1519 1517 1510 1497 1494 1492 1491 1492 1495 1496 1499 1505 1510 1514 1517 1521 1523 1523 1524 1523 1522 1521 1519 1516 1513 1511 1508 1507 1505 1504 1503 1502 1501
1507 1506 1507 1505 1507 1510 1512 1512 1515 1519 1527 1527 1518 1524 1493 1495 1490 1486 1486 1490 1494 1496 1499 1505 1511 1515 1518 1521 1522 1521 1521 1520 1518 1515 1513 1510 1508 1506 1503 1502 1500 1498 1497 1496
1514 1511 1508 1506 1505 1506 1511 1512 1519 1529 1532 1539 1517 1512 1498 1491 1486 1483 1482 1484 1489 1497 1499 1503 1509 1513 1516 1518 1519 1520 1519 1517 1515 1513 1511 1508 1505 1502 1499 1496 1494 1492 1491 1490
1512 1510 1510 1510 1506 1506 1508 1513 1535 1541 1552 1522 1526 1525 1495 1487 1484 1484 1482 1483 1486 1493 1503 1505 1506 1510 1513 1516 1517 1517 1515 1514 1512 1511 1508 1505 1501 1498 1495 1492 1489 1486 1484 1483
1520 1518 1508 1508 1510 1506 1509 1509 1526 1537 1536 1524 1525 1514 1488 1487 1484 1482 1482 1484 1489 1493 1500 1506 1509 1509 1511 1513 1513 1514 1512 1511 1509 1507 1504 1501 1498 1496 1493 1490 1487 1484 1481 1479
1517 1509 1505 1506 1507 1509 1513 1514 1512 1523 1537 1536 1515 1504 1487 1487 1485 1483 1484 1484 1489 1494 1498 1504 1508 1511 1512 1511 1511 1510 1510 1508 1506 1503 1501 1498 1495 1493 1491 1489 1486 1483 1480 1477
1504 1508 1505 1506 1506 1507 1507 1510 1517 1521 1528 1528 1518 1513 1494 1484 1485 1486 1487 1487 1490 1492 1497 1500 1506 1509 1511 1511 1509 1508 1507 1505 1503 1501 1498 1494 1491 1489 1487 1485 1483 1480 1477 1474
1504 1508 1510 1507 1507 1505 1509 1512 1515 1516 1523 1529 1524 1497 1491 1488 1487 1488 1487 1489 1491 1494 1496 1499 1503 1507 1507 1509 1509 1507 1504 1503 1501 1498 1495 1491 1487 1485 1484 1482 1480 1477 1473 1470
1499 1507 1510 1506 1503 1502 1502 1506 1509 1515 1520 1529 1527 1505 1487 1487 1484 1485 1487 1489 1493 1496 1498 1499 1500 1504 1506 1507 1508 1505 1502 1501 1498 1495 1491 1488 1486 1483 1481 1479 1476 1473 1470 1466
1498 1504 1516 1505 1505 1502 1504 1506 1506 1509 1513 1516 1518 1494 1486 1485 1485 1483 1486 1490 1492 1495 1498 1499 1499 1501 1504 1505 1505 1502 1500 1498 1496 1492 1488 1485 1483 1481 1478 1476 1473 1470 1466 1462
1494 1501 1500 1500 1496 1500 1502 1501 1504 1502 1514 1501 1493 1491 1484 1484 1487 1487 1487 1488 1492 1494 1496 1497 1498 1499 1501 1502 1501 1500 1498 1496 1493 1490 1486 1483 1481 1478 1475 1472 1469 1466 1463 1458
1496 1497 1502 1499 1498 1499 1498 1498 1499 1499 1498 1499 1488 1492 1487 1486 1487 1485 1486 1488 1490 1493 1494 1495 1497 1498 1499 1499 1498 1497 1496 1494 1491 1488 1484 1481 1478 1476 1472 1470 1466 1464 1459 1455
1499 1496 1498 1496 1495 1498 1498 1494 1495 1493 1491 1492 1489 1487 1484 1482 1484 1484 1483 1484 1486 1489 1493 1494 1496 1496 1497 1495 1495 1494 1493 1491 1488 1485 1482 1479 1476 1473 1470 1467 1464 1460 1457 1453
1499 1498 1499 1494 1496 1496 1497 1486 1481 1477 1483 1485 1484 1482 1483 1480 1479 1479 1480 1479 1482 1486 1491 1492 1494 1494 1494 1493 1492 1491 1490 1488 1486 1483 1480 1476 1473 1471 1468 1465 1462 1459 1455 1452
1495 1497 1498 1497 1497 1499 1477 1477 1477 1480 1489 1490 1487 1485 1483 1481 1480 1477 1477 1478 1483 1486 1489 1491 1492 1492 1492 1491 1490 1489 1487 1485 1483 1480 1478 1474 1472 1469 1467 1464 1461 1459 1455 1452
1491 1492 1493 1493 1498 1485 1474 1479 1479 1479 1493 1492 1488 1483 1482 1481 1480 1481 1481 1482 1483 1488 1489 1490 1490 1491 1491 1490 1489 1487 1486 1483 1481 1479 1476 1472 1470 1468 1465 1463 1461 1459 1456 1454
1489 1489 1489 1493 1492 1489 1479 1481 1480 1481 1492 1493 1489 1487 1484 1480 1484 1487 1487 1486 1486 1489 1490 1489 1489 1490 1490 1489 1487 1485 1484 1482 1479 1476 1473 1470 1469 1467 1464 1463 1462 1459 1458 1456
1488 1490 1484 1482 1482 1480 1484 1481 1478 1483 1493 1491 1490 1488 1486 1486 1488 1488 1488 1489 1488 1489 1489 1489 1489 1489 1488 1487 1485 1484 1482 1480 1477 1474 1471 1469 1468 1466 1464 1462 1462 1460 1459 1457
1480 1483 1482 1482 1482 1481 1480 1481 1482 1488 1488 1489 1489 1489 1488 1488 1488 1488 1489 1489 1488 1488 1488 1488 1487 1487 1487 1486 1483 1482 1480 1477 1475 1472 1470 1468 1466 1465 1463 1462 1462 1461 1460 1458
1485 1481 1481 1481 1479 1482 1482 1483 1485 1486 1488 1488 1487 1487 1488 1487 1487 1488 1487 1487 1486 1486 1486 1485 1485 1485 1485 1484 1482 1480 1477 1475 1473 1470 1468 1466 1465 1464 1463 1462 1462 1462 1461 1459
1481 1482 1482 1480 1482 1481 1482 1483 1485 1486 1486 1486 1485 1484 1484 1483 1483 1483 1483 1483 1482 1482 1482 1482 1482 1481 1481 1481 1479 1477 1475 1472 1470 1468 1466 1465 1464 1463 1462 1462 1462 1462 1461 1459
1481 1481 1482 1483 1479 1479 1479 1481 1482 1482 1481 1480 1479 1479 1479 1478 1476 1477 1476 1475 1475 1475 1475 1476 1476 1475 1475 1476 1475 1473 1472 1469 1467 1466 1464 1463 1462 1462 1461 1462 1462 1462 1461 1461
1475 1476 1480 1480 1475 1476 1477 1477 1476 1475 1475 1474 1473 1472 1472 1471 1469 1469 1467 1466 1466 1466 1467 1467 1467 1468 1468 1470 1470 1469 1468 1465 1464 1463 1461 1461 1461 1461 1461 1462 1462 1462 1462 1462
Wind_Speed
3 4 3 4 4 2 3 2 2 3 1 1 5 6 8 5 10 14 16 15 18 18 17 18 18 19 16 13 9 6 5 6 10 13 15 16 18 19 18 18 18 18 18 17
4 2 2 2 2 3 2 2 4 3 1 2 4 10 7 7 8 20 21 19 21 21 20 20 20 18 15 12 9 6 6 9 12 15 17 20 22 23 23 21 18 17 17 16
3 1 3 2 2 3 3 4 3 5 1 3 4 7 4 3 9 13 20 22 23 25 25 24 23 19 14 11 8 6 8 10 12 15 17 19 19 19 19 18 17 15 15 16
3 2 1 1 2 4 2 1 1 2 2 3 2 4 5 3 5 5 18 23 27 28 25 26 23 19 14 11 8 7 8 10 13 16 18 21 22 22 21 21 20 18 15 16
3 2 1 3 3 2 3 3 3 2 2 2 3 1 5 2 5 8 13 20 27 30 30 29 24 18 14 10 8 6 7 11 14 17 19 20 20 20 22 21 22 20 18 17
4 3 2 3 2 2 6 4 5 4 2 2 5 4 4 5 5 4 2 11 20 28 30 28 22 18 13 10 6 6 8 11 14 16 18 20 20 21 23 25 25 25 23 21
3 2 4 2 2 2 3 5 2 3 2 5 4 1 7 5 4 3 6 10 19 27 27 25 23 17 12 8 6 7 9 12 14 16 18 20 21 21 22 23 24 23 23 22
3 5 4 2 3 4 3 4 5 5 2 3 1 5 4 3 7 9 6 16 22 26 25 21 16 13 10 6 4 7 10 13 15 17 20 21 19 18 19 19 18 17 17 17
4 4 0 1 0 1 4 3 4 6 2 1 3 6 7 3 4 3 12 22 24 22 21 18 13 9 6 4 5 8 12 14 15 18 21 20 17 14 14 16 16 17 18 18
4 1 1 1 1 2 2 4 3 1 3 4 4 4 4 5 5 2 7 19 22 20 18 15 11 8 5 5 7 10 13 15 17 19 21 19 17 12 13 15 15 17 20 21
4 3 2 1 5 7 2 2 3 3 3 4 1 4 4 4 5 6 9 20 20 17 16 14 10 7 5 7 9 11 13 14 15 18 21 18 15 14 14 17 18 20 20 22
5 4 3 8 1 2 3 6 4 3 4 1 2 6 1 6 7 8 15 19 15 14 13 11 8 7 6 7 10 9 10 13 17 20 20 14 14 14 15 15 18 18 20 21
6 2 1 5 3 2 2 3 3 4 2 6 4 4 1 6 2 10 18 15 15 14 11 9 6 6 6 8 7 8 10 12 14 21 21 14 13 14 14 15 17 18 23 23
5 3 5 6 3 3 3 4 5 4 2 3 9 5 9 10 4 4 11 16 15 13 10 7 5 5 7 7 7 8 9 12 14 20 21 16 14 14 15 16 17 19 23 22
3 4 3 4 4 2 3 5 6 7 5 6 3 6 5 6 6 10 14 15 14 11 8 7 4 4 5 5 7 8 10 13 14 18 20 19 15 14 14 14 15 18 18 16
1 2 4 3 5 6 6 11 10 13 10 9 12 14 8 20 16 10 18 20 18 13 9 6 4 3 4 5 6 7 10 15 16 17 20 18 13 11 12 13 14 17 17 14
3 3 2 3 0 3 6 15 16 11 4 3 7 3 6 5 8 15 22 24 22 16 10 6 4 2 3 5 6 6 8 13 14 16 17 15 10 9 11 12 14 15 14 11
4 3 2 1 1 4 3 2 4 5 5 4 3 6 8 8 3 3 6 19 18 14 11 6 2 2 3 6 8 8 9 12 14 15 15 13 9 8 9 11 12 13 13 12
5 4 3 3 3 5 5 2 3 4 3 5 4 7 6 5 10 15 13 15 15 12 10 8 5 6 7 8 9 9 10 11 14 14 14 11 8 7 7 10 9 11 11 11
7 3 4 3 3 5 1 1 5 2 2 8 11 11 10 6 3 2 10 13 15 12 10 9 9 10 10 10 11 11 10 11 12 13 14 11 7 6 6 8 8 9 10 10
4 3 11 6 4 4 3 6 2 5 3 4 12 14 19 4 3 5 8 9 9 8 8 8 7 8 12 14 15 15 13 12 13 13 12 9 6 5 5 5 5 7 8 7
5 6 4 5 3 7 7 2 2 1 4 5 8 12 12 11 9 4 3 3 1 2 5 6 7 10 11 14 17 19 16 13 13 12 11 8 5 3 3 3 2 3 4 6
2 3 3 4 1 7 8 7 4 4 2 2 11 13 13 12 10 8 8 9 8 7 7 8 11 11 11 14 17 20 19 14 13 12 9 5 3 2 3 1 1 3 3 5
2 1 1 1 1 4 3 4 8 7 7 10 13 17 17 16 16 17 18 19 19 18 17 16 17 18 18 16 18 20 20 16 13 13 8 5 4 4 3 2 3 3 3 5
3 4 3 3 5 4 3 4 13 16 17 19 19 18 18 18 22 21 24 25 26 27 27 25 25 25 26 22 23 21 19 17 14 13 8 5 4 3 2 3 5 2 4 5
7 5 4 5 7 5 10 16 18 19 20 20 20 21 23 24 26 27 28 27 29 30 31 32 32 31 31 26 24 20 18 16 14 13 10 7 4 2 4 4 5 4 6 8
Wind_Direction
31 76 193 225 209 149 132 160 247 253 17 213 249 265 263 234 213 201 200 197 190 189 182 178 176 174 176 179 189 214 254 289 308 316 323 327 330 329 325 316 308 304 299 295
26 206 183 237 159 195 215 227 262 286 136 177 337 285 257 205 218 213 203 199 196 186 185 180 178 179 182 191 204 233 276 303 315 324 328 328 327 326 323 319 314 308 300 293
171 158 321 206 155 159 214 192 214 230 29 48 318 285 239 225 215 229 225 216 201 194 186 183 180 185 192 202 217 253 286 303 315 321 322 321 317 314 315 312 309 307 300 293
214 275 195 211 225 136 252 185 249 210 94 227 348 272 286 234 246 223 232 223 209 195 189 182 184 186 195 208 226 259 286 311 318 323 328 329 326 323 321 321 318 314 305 292
240 150 117 175 191 185 232 51 79 40 87 46 291 42 268 341 260 239 228 230 219 202 187 182 184 189 195 211 236 264 302 314 326 332 331 331 328 322 317 316 312 310 305 294
279 312 202 204 115 142 151 89 60 59 60 334 236 193 256 198 224 307 262 216 206 197 182 178 179 185 194 208 233 276 306 324 330 328 329 331 330 324 320 317 311 307 302 297
306 246 300 237 124 95 104 83 1 357 2 234 340 308 260 258 262 259 250 193 181 177 175 174 177 178 188 205 238 293 318 326 324 326 332 332 326 323 323 322 320 318 313 307
156 316 178 202 255 176 171 153 153 204 202 276 2 238 260 237 304 287 229 167 164 165 167 170 173 175 186 205 267 308 321 321 320 329 331 330 326 328 332 338 341 342 337 333
156 270 11 235 234 170 184 177 153 113 109 37 253 293 299 306 350 113 154 160 161 161 162 165 168 182 195 232 297 316 321 319 325 328 330 328 322 323 336 330 328 326 320 323
187 270 192 256 159 19 187 168 92 43 164 239 278 276 247 334 340 138 160 164 163 160 160 163 174 194 222 279 307 320 317 323 326 329 332 329 319 314 315 316 314 316 320 319
137 130 285 49 214 183 143 221 57 101 145 169 282 259 212 270 302 220 188 175 169 168 166 170 183 206 234 287 309 312 324 329 329 332 334 331 328 322 314 319 315 317 321 318
184 149 206 219 237 178 165 200 162 136 215 179 141 266 344 276 269 203 186 178 174 172 173 179 191 215 255 288 305 322 344 348 345 342 340 335 335 327 322 313 315 324 326 325
183 178 80 333 8 47 221 209 161 109 104 192 157 254 83 23 353 189 179 179 171 172 174 178 189 225 258 281 305 328 344 348 349 343 341 333 329 323 321 321 324 326 326 327
155 165 185 189 172 140 187 209 199 164 173 184 235 283 308 336 337 240 201 183 179 176 177 185 203 222 257 282 308 315 325 331 346 343 343 333 322 325 322 324 325 327 329 323
157 214 192 242 228 225 230 226 201 205 210 218 205 219 240 257 280 236 206 191 182 183 184 193 213 242 255 291 301 314 320 333 339 340 338 332 325 326 325 326 331 332 332 336
334 234 174 244 239 213 235 249 237 240 241 253 259 265 253 271 272 209 206 196 190 186 183 192 211 244 264 309 314 324 335 336 333 339 334 326 322 326 336 338 345 336 339 344
188 179 155 241 6 287 265 229 225 237 163 255 245 278 332 295 255 246 223 204 194 176 179 188 201 240 287 324 327 325 333 333 335 342 331 323 324 331 336 347 346 348 355 359
164 174 182 246 214 232 240 180 171 143 71 8 336 327 298 296 331 355 244 204 174 169 163 149 118 6 341 338 337 320 322 334 337 339 327 325 331 337 346 354 355 360 7 9
211 161 197 202 208 313 290 68 127 187 104 4 331 338 53 76 62 56 97 135 138 142 132 118 88 43 16 355 342 333 332 329 337 335 329 332 329 343 357 4 4 12 19 24
190 256 198 155 208 237 129 13 351 234 121 6 31 23 356 2 86 262 111 118 115 110 100 89 67 42 20 4 353 343 341 325 335 329 330 332 334 325 0 7 5 19 21 22
153 197 227 214 227 280 319 297 308 157 167 74 45 33 31 37 7 132 139 122 109 88 70 60 52 29 20 11 4 352 339 327 326 325 327 328 326 327 357 12 5 23 28 35
180 173 186 207 240 253 347 14 117 131 117 109 28 21 14 18 38 63 123 143 93 8 6 10 22 17 3 356 353 351 340 331 319 320 324 330 323 319 357 21 17 13 25 36
234 189 189 194 193 142 68 111 131 104 108 331 329 328 327 319 316 309 296 298 301 307 316 320 318 317 334 339 338 340 338 327 318 310 315 329 343 329 352 8 94 78 63 64
253 188 207 23 171 174 358 137 132 322 299 293 299 305 302 293 289 281 275 276 278 278 284 292 290 295 305 317 323 326 331 322 317 296 292 294 305 307 306 202 135 96 75 85
212 155 180 281 277 291 149 271 314 306 304 299 297 292 286 282 282 283 280 272 269 270 272 277 280 284 289 299 305 311 318 318 311 287 279 271 290 295 214 147 142 135 104 100
194 187 168 223 226 249 272 301 306 307 306 300 297 292 286 283 281 282 280 276 273 269 266 268 269 273 277 283 289 296 304 307 297 285 267 246 242 240 181 156 155 149 124 115